Time,TemperatureF,DewpointF,PressureIn,WindDirection,WindDirectionDegrees,WindSpeedMPH,WindSpeedGustMPH,Humidity,HourlyPrecipIn,Conditions,Clouds,dailyrainin,SoftwareType,DateUTC
2013-04-16 00:00:00,56.8,52.0,29.89,SE,135,0.0,0.0,84,0.00,,,-99.99,open2300 version1.11,2013-04-16 04:00:00,
2013-04-16 00:05:00,56.8,52.0,29.89,SE,135,0.0,0.0,84,0.00,,,-99.99,open2300 version1.11,2013-04-16 04:05:00,
2013-04-16 00:10:00,56.8,52.0,29.89,SE,135,0.0,0.0,84,0.00,,,-99.99,open2300 version1.11,2013-04-16 04:10:00,
2013-04-16 00:20:00,56.8,51.8,29.88,SE,139,0.2,2.9,84,0.00,,,-99.99,open2300 version1.11,2013-04-16 04:20:00,
2013-04-16 00:25:00,56.8,52.0,29.88,SSE,157,0.2,2.2,84,0.00,,,-99.99,open2300 version1.11,2013-04-16 04:25:00,
2013-04-16 00:35:00,56.8,52.0,29.87,SW,225,0.0,0.0,84,0.00,,,-99.99,open2300 version1.11,2013-04-16 04:35:00,
2013-04-16 00:45:00,56.8,52.0,29.86,SE,128,0.6,5.6,84,0.00,,,-99.99,open2300 version1.11,2013-04-16 04:45:00,
2013-04-16 00:50:00,57.0,52.2,29.87,ESE,112,0.7,8.1,84,0.00,,,-99.99,open2300 version1.11,2013-04-16 04:50:00,
2013-04-16 00:55:00,57.0,52.2,29.87,South,174,0.1,2.0,84,0.00,,,-99.99,open2300 version1.11,2013-04-16 04:55:00,
2013-04-16 01:05:00,57.6,52.4,29.87,West,273,0.4,4.0,83,0.00,,,-99.99,open2300 version1.11,2013-04-16 05:05:00,
2013-04-16 01:10:00,57.9,52.8,29.87,ESE,108,0.4,3.4,83,0.00,,,-99.99,open2300 version1.11,2013-04-16 05:10:00,
2013-04-16 01:20:00,58.5,53.0,29.87,ESE,121,0.5,6.0,82,0.00,,,-99.99,open2300 version1.11,2013-04-16 05:20:00,
2013-04-16 01:25:00,58.6,52.8,29.86,SSE,151,0.9,7.6,81,0.00,,,-99.99,open2300 version1.11,2013-04-16 05:25:00,
2013-04-16 01:30:00,58.8,53.0,29.87,West,274,0.8,4.2,81,0.00,,,-99.99,open2300 version1.11,2013-04-16 05:30:00,
2013-04-16 01:35:00,58.8,53.0,29.87,SSW,202,0.5,4.5,81,0.00,,,-99.99,open2300 version1.11,2013-04-16 05:35:00,
2013-04-16 01:45:00,59.2,53.1,29.87,SSW,206,0.4,3.8,80,0.00,,,-99.99,open2300 version1.11,2013-04-16 05:45:00,
2013-04-16 01:50:00,59.4,53.2,29.87,West,260,1.0,7.2,80,0.00,,,-99.99,open2300 version1.11,2013-04-16 05:50:00,
2013-04-16 01:55:00,59.4,53.2,29.86,SW,216,1.5,7.2,80,0.00,,,-99.99,open2300 version1.11,2013-04-16 05:55:00,
2013-04-16 02:00:00,59.5,53.4,29.86,SW,234,0.9,6.3,80,0.00,,,-99.99,open2300 version1.11,2013-04-16 06:00:00,
2013-04-16 02:05:00,59.5,53.1,29.87,WSW,247,0.4,2.9,79,0.00,,,-99.99,open2300 version1.11,2013-04-16 06:05:00,
2013-04-16 02:10:00,59.5,53.1,29.86,SE,146,0.2,3.4,79,0.00,,,-99.99,open2300 version1.11,2013-04-16 06:10:00,
2013-04-16 02:20:00,59.5,53.1,29.86,WSW,252,0.5,4.9,79,0.00,,,-99.99,open2300 version1.11,2013-04-16 06:20:00,
2013-04-16 02:25:00,59.5,53.1,29.87,SW,232,0.5,3.1,79,0.00,,,-99.99,open2300 version1.11,2013-04-16 06:25:00,
2013-04-16 02:30:00,59.5,53.1,29.86,SSW,202,0.2,1.6,79,0.00,,,-99.99,open2300 version1.11,2013-04-16 06:30:00,
2013-04-16 02:35:00,59.5,53.1,29.86,SW,236,0.9,6.0,79,0.00,,,-99.99,open2300 version1.11,2013-04-16 06:35:00,
2013-04-16 02:45:00,59.5,52.7,29.87,SW,225,0.6,4.2,78,0.00,,,-99.99,open2300 version1.11,2013-04-16 06:45:00,
2013-04-16 02:50:00,59.5,52.7,29.87,SW,230,1.0,5.8,78,0.00,,,-99.99,open2300 version1.11,2013-04-16 06:50:00,
2013-04-16 03:00:00,59.5,52.7,29.87,WSW,257,1.9,7.4,78,0.00,,,-99.99,open2300 version1.11,2013-04-16 07:00:00,
2013-04-16 03:05:00,59.2,52.0,29.87,WNW,299,3.5,7.4,77,0.00,,,-99.99,open2300 version1.11,2013-04-16 07:05:00,
2013-04-16 03:10:00,58.3,51.1,29.89,West,280,5.1,8.5,77,0.00,,,-99.99,open2300 version1.11,2013-04-16 07:10:00,
2013-04-16 03:15:00,57.4,50.2,29.89,West,277,3.9,6.3,77,0.00,,,-99.99,open2300 version1.11,2013-04-16 07:15:00,
2013-04-16 03:25:00,55.6,48.4,29.90,West,278,2.2,4.0,77,0.00,,,-99.99,open2300 version1.11,2013-04-16 07:25:00,
2013-04-16 03:30:00,55.0,48.2,29.90,West,272,2.9,5.6,78,0.00,,,-99.99,open2300 version1.11,2013-04-16 07:30:00,
2013-04-16 03:35:00,54.3,47.6,29.90,West,273,3.5,6.5,78,0.00,,,-99.99,open2300 version1.11,2013-04-16 07:35:00,
2013-04-16 03:40:00,53.8,47.1,29.90,West,279,2.4,4.9,78,0.00,,,-99.99,open2300 version1.11,2013-04-16 07:40:00,
2013-04-16 03:50:00,52.9,46.9,29.92,West,269,2.7,6.7,80,0.00,,,-99.99,open2300 version1.11,2013-04-16 07:50:00,
2013-04-16 03:55:00,52.5,46.6,29.91,West,270,3.1,6.3,80,0.00,,,-99.99,open2300 version1.11,2013-04-16 07:55:00,
2013-04-16 04:00:00,52.2,46.2,29.92,West,273,2.5,6.0,80,0.00,,,-99.99,open2300 version1.11,2013-04-16 08:00:00,
2013-04-16 04:05:00,52.0,46.4,29.91,West,278,2.2,5.4,81,0.00,,,-99.99,open2300 version1.11,2013-04-16 08:05:00,
2013-04-16 04:10:00,51.6,46.0,29.92,West,277,1.6,4.9,81,0.00,,,-99.99,open2300 version1.11,2013-04-16 08:10:00,
2013-04-16 04:20:00,51.3,45.9,29.91,West,279,0.8,3.6,82,0.00,,,-99.99,open2300 version1.11,2013-04-16 08:20:00,
2013-04-16 04:30:00,50.9,45.6,29.92,West,270,1.0,4.0,82,0.00,,,-99.99,open2300 version1.11,2013-04-16 08:30:00,
2013-04-16 04:35:00,50.7,45.7,29.92,West,274,1.3,3.8,83,0.00,,,-99.99,open2300 version1.11,2013-04-16 08:35:00,
2013-04-16 04:45:00,50.5,45.5,29.92,West,273,0.2,2.0,83,0.00,,,-99.99,open2300 version1.11,2013-04-16 08:45:00,
2013-04-16 04:50:00,50.4,45.3,29.92,WNW,292,0.0,0.0,83,0.00,,,-99.99,open2300 version1.11,2013-04-16 08:50:00,
2013-04-16 04:55:00,50.2,45.2,29.91,WNW,292,0.0,0.0,83,0.00,,,-99.99,open2300 version1.11,2013-04-16 08:55:00,
2013-04-16 05:00:00,50.2,45.2,29.91,WNW,292,0.0,0.0,83,0.00,,,-99.99,open2300 version1.11,2013-04-16 09:00:00,
2013-04-16 05:10:00,50.2,45.5,29.91,WNW,292,0.0,0.0,84,0.00,,,-99.99,open2300 version1.11,2013-04-16 09:10:00,
2013-04-16 05:15:00,50.2,45.5,29.91,WNW,292,0.0,0.0,84,0.00,,,-99.99,open2300 version1.11,2013-04-16 09:15:00,
2013-04-16 05:20:00,49.8,45.1,29.91,WNW,292,0.0,0.0,84,0.00,,,-99.99,open2300 version1.11,2013-04-16 09:20:00,
2013-04-16 05:25:00,50.0,45.3,29.91,North,0,0.0,1.1,84,0.00,,,-99.99,open2300 version1.11,2013-04-16 09:25:00,
2013-04-16 05:30:00,49.8,45.1,29.91,North,0,0.0,0.0,84,0.00,,,-99.99,open2300 version1.11,2013-04-16 09:30:00,
2013-04-16 05:35:00,49.8,45.1,29.92,North,0,0.0,0.0,84,0.00,,,-99.99,open2300 version1.11,2013-04-16 09:35:00,
2013-04-16 05:40:00,49.8,45.4,29.92,North,0,0.0,0.0,85,0.00,,,-99.99,open2300 version1.11,2013-04-16 09:40:00,
2013-04-16 05:45:00,49.8,45.4,29.93,North,0,0.0,0.0,85,0.00,,,-99.99,open2300 version1.11,2013-04-16 09:45:00,
2013-04-16 05:50:00,49.8,45.4,29.93,NW,315,0.0,0.0,85,0.00,,,-99.99,open2300 version1.11,2013-04-16 09:50:00,
2013-04-16 05:55:00,49.8,45.4,29.93,NW,315,0.1,0.9,85,0.00,,,-99.99,open2300 version1.11,2013-04-16 09:55:00,
2013-04-16 06:00:00,49.8,45.4,29.94,NW,315,0.0,0.0,85,0.00,,,-99.99,open2300 version1.11,2013-04-16 10:00:00,
2013-04-16 06:10:00,49.6,45.2,29.93,WNW,292,0.0,0.0,85,0.00,,,-99.99,open2300 version1.11,2013-04-16 10:10:00,
2013-04-16 06:15:00,49.6,45.2,29.93,WNW,292,0.0,0.0,85,0.00,,,-99.99,open2300 version1.11,2013-04-16 10:15:00,
2013-04-16 06:20:00,49.6,45.2,29.91,WNW,292,0.0,0.0,85,0.02,,,-99.99,open2300 version1.11,2013-04-16 10:20:00,
2013-04-16 06:25:00,49.6,45.2,29.92,WNW,292,0.2,1.1,85,0.02,,,-99.99,open2300 version1.11,2013-04-16 10:25:00,
2013-04-16 06:30:00,49.5,45.1,29.94,WNW,292,0.0,0.0,85,0.02,,,-99.99,open2300 version1.11,2013-04-16 10:30:00,
2013-04-16 06:35:00,49.3,44.9,29.94,WNW,292,0.0,0.0,85,0.02,,,-99.99,open2300 version1.11,2013-04-16 10:35:00,
2013-04-16 06:40:00,49.3,44.9,29.94,WNW,292,0.0,0.0,85,0.02,,,-99.99,open2300 version1.11,2013-04-16 10:40:00,
2013-04-16 06:45:00,49.3,44.9,29.95,WNW,292,0.0,0.0,85,0.02,,,-99.99,open2300 version1.11,2013-04-16 10:45:00,
2013-04-16 06:50:00,49.3,44.9,29.95,WNW,292,0.0,0.0,85,0.02,,,-99.99,open2300 version1.11,2013-04-16 10:50:00,
2013-04-16 06:55:00,49.3,44.9,29.95,WNW,292,0.0,0.0,85,0.02,,,-99.99,open2300 version1.11,2013-04-16 10:55:00,
2013-04-16 07:05:00,49.1,45.0,29.96,WNW,292,0.0,0.9,86,0.02,,,-99.99,open2300 version1.11,2013-04-16 11:05:00,
2013-04-16 07:10:00,49.1,45.0,29.96,WNW,292,0.0,0.0,86,0.02,,,-99.99,open2300 version1.11,2013-04-16 11:10:00,
2013-04-16 07:15:00,49.1,45.0,29.97,West,270,0.1,1.8,86,0.02,,,-99.99,open2300 version1.11,2013-04-16 11:15:00,
2013-04-16 07:20:00,49.1,45.0,29.97,WSW,257,0.8,2.5,86,0.00,,,-99.99,open2300 version1.11,2013-04-16 11:20:00,
2013-04-16 07:25:00,48.9,44.9,29.97,SE,135,0.7,2.0,86,0.00,,,-99.99,open2300 version1.11,2013-04-16 11:25:00,
2013-04-16 07:30:00,48.9,44.9,29.96,West,264,0.5,1.6,86,0.00,,,-99.99,open2300 version1.11,2013-04-16 11:30:00,
2013-04-16 07:35:00,48.9,44.9,29.96,West,270,0.1,1.3,86,0.00,,,-99.99,open2300 version1.11,2013-04-16 11:35:00,
2013-04-16 07:40:00,48.9,44.9,29.97,West,270,0.2,1.8,86,0.00,,,-99.99,open2300 version1.11,2013-04-16 11:40:00,
2013-04-16 07:45:00,48.7,44.7,29.96,West,270,0.0,0.0,86,0.00,,,-99.99,open2300 version1.11,2013-04-16 11:45:00,
2013-04-16 07:55:00,48.7,44.7,29.97,West,270,0.0,0.7,86,0.00,,,-99.99,open2300 version1.11,2013-04-16 11:55:00,
2013-04-16 08:05:00,48.7,44.7,29.98,WNW,285,0.5,2.7,86,0.00,,,-99.99,open2300 version1.11,2013-04-16 12:05:00,
2013-04-16 08:15:00,48.7,44.7,29.99,West,265,0.7,3.1,86,0.00,,,-99.99,open2300 version1.11,2013-04-16 12:15:00,
2013-04-16 08:20:00,48.7,44.7,29.99,West,270,0.4,2.5,86,0.00,,,-99.99,open2300 version1.11,2013-04-16 12:20:00,
2013-04-16 08:25:00,48.7,44.7,29.99,West,270,0.6,1.8,86,0.00,,,-99.99,open2300 version1.11,2013-04-16 12:25:00,
2013-04-16 08:30:00,48.7,44.7,30.00,West,270,0.0,0.0,86,0.00,,,-99.99,open2300 version1.11,2013-04-16 12:30:00,
2013-04-16 08:35:00,48.7,44.7,30.00,West,270,0.4,2.0,86,0.00,,,-99.99,open2300 version1.11,2013-04-16 12:35:00,
2013-04-16 08:45:00,48.7,44.7,30.00,West,278,1.5,3.6,86,0.00,,,-99.99,open2300 version1.11,2013-04-16 12:45:00,
2013-04-16 08:50:00,48.6,44.5,30.00,West,266,1.2,4.5,86,0.00,,,-99.99,open2300 version1.11,2013-04-16 12:50:00,
2013-04-16 09:00:00,48.4,44.4,30.00,West,265,0.7,3.6,86,0.00,,,-99.99,open2300 version1.11,2013-04-16 13:00:00,
2013-04-16 09:10:00,48.4,44.4,30.00,WNW,292,0.6,2.5,86,0.00,,,-99.99,open2300 version1.11,2013-04-16 13:10:00,
2013-04-16 09:15:00,48.4,44.4,30.00,West,270,0.1,1.3,86,0.00,,,-99.99,open2300 version1.11,2013-04-16 13:15:00,
2013-04-16 09:20:00,48.4,44.4,30.00,NW,315,0.2,2.5,86,0.00,,,-99.99,open2300 version1.11,2013-04-16 13:20:00,
2013-04-16 09:25:00,48.4,44.4,30.00,NNW,330,0.2,2.9,86,0.00,,,-99.99,open2300 version1.11,2013-04-16 13:25:00,
2013-04-16 09:30:00,48.4,44.4,30.00,West,275,0.4,2.0,86,0.00,,,-99.99,open2300 version1.11,2013-04-16 13:30:00,
2013-04-16 09:35:00,48.6,44.5,30.00,West,280,0.8,3.1,86,0.00,,,-99.99,open2300 version1.11,2013-04-16 13:35:00,
2013-04-16 09:40:00,48.7,44.7,30.01,WNW,282,1.1,2.9,86,0.00,,,-99.99,open2300 version1.11,2013-04-16 13:40:00,
2013-04-16 09:45:00,48.7,44.7,30.00,West,270,0.5,3.1,86,0.00,,,-99.99,open2300 version1.11,2013-04-16 13:45:00,
2013-04-16 09:50:00,48.7,44.4,30.00,SE,135,0.7,3.4,85,0.00,,,-99.99,open2300 version1.11,2013-04-16 13:50:00,
2013-04-16 09:55:00,48.7,44.4,30.00,NNE,22,0.3,3.4,85,0.00,,,-99.99,open2300 version1.11,2013-04-16 13:55:00,
2013-04-16 10:00:00,48.7,44.1,30.01,West,270,0.0,0.9,84,0.00,,,-99.99,open2300 version1.11,2013-04-16 14:00:00,
2013-04-16 10:10:00,49.1,44.4,30.01,West,270,0.8,4.0,84,0.00,,,-99.99,open2300 version1.11,2013-04-16 14:10:00,
2013-04-16 10:15:00,49.3,44.6,30.01,West,270,0.3,2.7,84,0.00,,,-99.99,open2300 version1.11,2013-04-16 14:15:00,
2013-04-16 10:20:00,49.6,44.9,30.02,SSE,160,0.3,2.0,84,0.00,,,-99.99,open2300 version1.11,2013-04-16 14:20:00,
2013-04-16 10:30:00,50.2,45.2,30.03,West,270,0.5,1.8,83,0.00,,,-99.99,open2300 version1.11,2013-04-16 14:30:00,
2013-04-16 10:40:00,50.4,45.0,30.03,West,270,0.2,1.6,82,0.00,,,-99.99,open2300 version1.11,2013-04-16 14:40:00,
2013-04-16 10:45:00,50.5,45.2,30.03,West,270,0.8,2.9,82,0.00,,,-99.99,open2300 version1.11,2013-04-16 14:45:00,
2013-04-16 10:55:00,50.7,45.1,30.03,WNW,300,0.1,1.1,81,0.00,,,-99.99,open2300 version1.11,2013-04-16 14:55:00,
2013-04-16 11:00:00,50.9,45.3,30.04,West,261,0.3,1.8,81,0.00,,,-99.99,open2300 version1.11,2013-04-16 15:00:00,
2013-04-16 11:05:00,51.3,45.6,30.05,South,191,1.1,5.4,81,0.00,,,-99.99,open2300 version1.11,2013-04-16 15:05:00,
2013-04-16 11:10:00,51.6,45.7,30.05,West,261,1.0,3.4,80,0.00,,,-99.99,open2300 version1.11,2013-04-16 15:10:00,
2013-04-16 11:15:00,51.4,45.2,30.05,South,170,1.0,3.1,79,0.00,,,-99.99,open2300 version1.11,2013-04-16 15:15:00,
2013-04-16 11:25:00,51.6,45.3,30.05,WSW,258,0.4,2.5,79,0.00,,,-99.99,open2300 version1.11,2013-04-16 15:25:00,
2013-04-16 11:30:00,52.0,45.7,30.05,WSW,255,1.5,4.2,79,0.00,,,-99.99,open2300 version1.11,2013-04-16 15:30:00,
2013-04-16 11:40:00,52.3,45.7,30.05,WSW,241,1.5,6.5,78,0.00,,,-99.99,open2300 version1.11,2013-04-16 15:40:00,
2013-04-16 11:45:00,52.5,45.5,30.06,WSW,249,2.7,5.6,77,0.00,,,-99.99,open2300 version1.11,2013-04-16 15:45:00,
2013-04-16 11:50:00,52.7,45.4,30.06,WSW,244,1.2,7.4,76,0.00,,,-99.99,open2300 version1.11,2013-04-16 15:50:00,
2013-04-16 11:55:00,52.9,45.2,30.05,WSW,255,1.2,3.8,75,0.00,,,-99.99,open2300 version1.11,2013-04-16 15:55:00,
2013-04-16 12:05:00,53.6,45.5,30.05,WSW,237,2.1,4.0,74,0.00,,,-99.99,open2300 version1.11,2013-04-16 16:05:00,
2013-04-16 12:10:00,54.3,45.8,30.06,WSW,253,1.9,5.1,73,0.00,,,-99.99,open2300 version1.11,2013-04-16 16:10:00,
2013-04-16 12:15:00,55.0,46.2,30.06,WNW,287,0.8,3.8,72,0.00,,,-99.99,open2300 version1.11,2013-04-16 16:15:00,
2013-04-16 12:20:00,55.8,46.5,30.06,WNW,291,1.9,6.5,71,0.00,,,-99.99,open2300 version1.11,2013-04-16 16:20:00,
2013-04-16 12:25:00,56.1,46.5,30.06,West,262,2.4,6.0,70,0.00,,,-99.99,open2300 version1.11,2013-04-16 16:25:00,
2013-04-16 12:30:00,56.5,46.4,30.06,WSW,257,2.1,7.4,69,0.00,,,-99.99,open2300 version1.11,2013-04-16 16:30:00,
2013-04-16 12:35:00,56.7,46.2,30.06,West,270,1.6,7.4,68,0.00,,,-99.99,open2300 version1.11,2013-04-16 16:35:00,
2013-04-16 12:40:00,56.7,46.2,30.05,WNW,290,0.5,3.1,68,0.00,,,-99.99,open2300 version1.11,2013-04-16 16:40:00,
2013-04-16 12:45:00,56.7,46.2,30.05,NNW,348,1.2,4.2,68,0.00,,,-99.99,open2300 version1.11,2013-04-16 16:45:00,
2013-04-16 12:50:00,56.5,46.0,30.05,SW,235,0.8,3.1,68,0.00,,,-99.99,open2300 version1.11,2013-04-16 16:50:00,
2013-04-16 12:55:00,57.0,46.9,30.04,WSW,247,1.7,7.8,69,0.00,,,-99.99,open2300 version1.11,2013-04-16 16:55:00,
2013-04-16 13:05:00,57.7,46.8,30.04,WSW,252,2.0,4.7,67,0.00,,,-99.99,open2300 version1.11,2013-04-16 17:05:00,
2013-04-16 13:10:00,57.9,46.6,30.04,West,277,0.8,4.5,66,0.00,,,-99.99,open2300 version1.11,2013-04-16 17:10:00,
2013-04-16 13:15:00,58.1,46.8,30.04,WNW,286,0.8,4.7,66,0.00,,,-99.99,open2300 version1.11,2013-04-16 17:15:00,
2013-04-16 13:20:00,58.5,46.3,30.04,WNW,285,1.8,6.9,64,0.00,,,-99.99,open2300 version1.11,2013-04-16 17:20:00,
2013-04-16 13:25:00,58.8,46.6,30.04,WSW,252,2.3,6.5,64,0.00,,,-99.99,open2300 version1.11,2013-04-16 17:25:00,
2013-04-16 13:35:00,59.4,46.7,30.05,West,273,1.1,3.8,63,0.00,,,-99.99,open2300 version1.11,2013-04-16 17:35:00,
2013-04-16 13:40:00,59.7,46.7,30.04,WSW,249,2.2,5.6,62,0.00,,,-99.99,open2300 version1.11,2013-04-16 17:40:00,
2013-04-16 13:45:00,60.1,46.2,30.05,West,278,1.9,6.3,60,0.00,,,-99.99,open2300 version1.11,2013-04-16 17:45:00,
2013-04-16 13:50:00,60.1,45.2,30.05,WNW,303,1.4,5.8,58,0.00,,,-99.99,open2300 version1.11,2013-04-16 17:50:00,
2013-04-16 13:55:00,60.3,45.4,30.05,West,266,1.5,6.9,58,0.00,,,-99.99,open2300 version1.11,2013-04-16 17:55:00,
2013-04-16 14:05:00,60.6,45.3,30.06,SW,231,3.7,7.6,57,0.00,,,-99.99,open2300 version1.11,2013-04-16 18:05:00,
2013-04-16 14:15:00,60.6,44.3,30.07,West,265,3.2,6.0,55,0.00,,,-99.99,open2300 version1.11,2013-04-16 18:15:00,
2013-04-16 14:20:00,61.0,44.2,30.07,West,259,2.8,6.7,54,0.00,,,-99.99,open2300 version1.11,2013-04-16 18:20:00,
2013-04-16 14:25:00,61.0,44.2,30.07,West,272,4.0,8.5,54,0.00,,,-99.99,open2300 version1.11,2013-04-16 18:25:00,
2013-04-16 14:30:00,61.0,43.7,30.08,WNW,291,3.2,8.1,53,0.00,,,-99.99,open2300 version1.11,2013-04-16 18:30:00,
2013-04-16 14:35:00,61.0,43.7,30.07,West,265,2.5,5.8,53,0.00,,,-99.99,open2300 version1.11,2013-04-16 18:35:00,
2013-04-16 14:40:00,61.0,43.2,30.07,West,271,3.4,6.9,52,0.00,,,-99.99,open2300 version1.11,2013-04-16 18:40:00,
2013-04-16 14:45:00,61.0,43.2,30.07,West,274,1.8,5.8,52,0.00,,,-99.99,open2300 version1.11,2013-04-16 18:45:00,
2013-04-16 14:50:00,61.0,43.2,30.07,West,276,4.0,8.1,52,0.00,,,-99.99,open2300 version1.11,2013-04-16 18:50:00,
2013-04-16 15:05:00,61.3,43.5,30.08,WSW,257,2.7,7.6,52,0.00,,,-99.99,open2300 version1.11,2013-04-16 19:05:00,
2013-04-16 15:10:00,61.5,43.7,30.08,West,272,3.1,7.2,52,0.00,,,-99.99,open2300 version1.11,2013-04-16 19:10:00,
2013-04-16 15:15:00,61.5,43.2,30.08,West,264,2.5,6.0,51,0.00,,,-99.99,open2300 version1.11,2013-04-16 19:15:00,
2013-04-16 15:25:00,61.5,43.2,30.08,West,272,1.7,4.7,51,0.00,,,-99.99,open2300 version1.11,2013-04-16 19:25:00,
2013-04-16 15:30:00,61.5,43.2,30.09,WSW,246,3.1,5.6,51,0.00,,,-99.99,open2300 version1.11,2013-04-16 19:30:00,
2013-04-16 15:35:00,61.7,42.9,30.09,West,279,2.6,6.7,50,0.00,,,-99.99,open2300 version1.11,2013-04-16 19:35:00,
2013-04-16 15:40:00,61.7,42.9,30.09,West,259,3.5,7.8,50,0.00,,,-99.99,open2300 version1.11,2013-04-16 19:40:00,
2013-04-16 15:45:00,61.5,42.1,30.09,West,275,4.4,7.6,49,0.00,,,-99.99,open2300 version1.11,2013-04-16 19:45:00,
2013-04-16 15:50:00,61.5,42.1,30.09,West,268,2.6,8.5,49,0.00,,,-99.99,open2300 version1.11,2013-04-16 19:50:00,
2013-04-16 15:55:00,61.3,42.0,30.09,WSW,252,3.7,6.9,49,0.00,,,-99.99,open2300 version1.11,2013-04-16 19:55:00,
2013-04-16 16:05:00,61.5,42.1,30.09,West,261,4.8,8.3,49,0.00,,,-99.99,open2300 version1.11,2013-04-16 20:05:00,
2013-04-16 16:10:00,61.3,42.0,30.10,West,259,3.1,7.8,49,0.00,,,-99.99,open2300 version1.11,2013-04-16 20:10:00,
2013-04-16 16:20:00,61.0,41.1,30.10,WSW,243,3.0,6.3,48,0.00,,,-99.99,open2300 version1.11,2013-04-16 20:20:00,
2013-04-16 16:25:00,61.0,41.1,30.10,West,270,1.8,5.6,48,0.00,,,-99.99,open2300 version1.11,2013-04-16 20:25:00,
2013-04-16 16:30:00,61.0,40.5,30.10,West,268,3.7,7.2,47,0.00,,,-99.99,open2300 version1.11,2013-04-16 20:30:00,
2013-04-16 16:35:00,60.6,39.6,30.10,WNW,285,1.1,4.5,46,0.00,,,-99.99,open2300 version1.11,2013-04-16 20:35:00,
2013-04-16 16:40:00,60.6,40.2,30.10,WNW,285,2.5,5.1,47,0.00,,,-99.99,open2300 version1.11,2013-04-16 20:40:00,
2013-04-16 16:45:00,60.6,40.8,30.09,West,260,1.5,4.2,48,0.00,,,-99.99,open2300 version1.11,2013-04-16 20:45:00,
2013-04-16 16:50:00,60.6,40.8,30.09,WNW,289,0.8,2.9,48,0.00,,,-99.99,open2300 version1.11,2013-04-16 20:50:00,
2013-04-16 16:55:00,60.8,40.4,30.10,WSW,257,2.4,6.7,47,0.00,,,-99.99,open2300 version1.11,2013-04-16 20:55:00,
2013-04-16 17:00:00,60.6,40.2,30.10,West,269,1.6,4.5,47,0.00,,,-99.99,open2300 version1.11,2013-04-16 21:00:00,
2013-04-16 17:05:00,60.6,40.2,30.10,WNW,282,1.7,5.1,47,0.00,,,-99.99,open2300 version1.11,2013-04-16 21:05:00,
2013-04-16 17:15:00,60.4,40.0,30.10,West,270,0.4,2.5,47,0.00,,,-99.99,open2300 version1.11,2013-04-16 21:15:00,
2013-04-16 17:25:00,60.4,40.6,30.10,West,268,1.0,3.4,48,0.00,,,-99.99,open2300 version1.11,2013-04-16 21:25:00,
2013-04-16 17:30:00,60.6,41.3,30.10,SSE,165,0.7,3.1,49,0.00,,,-99.99,open2300 version1.11,2013-04-16 21:30:00,
2013-04-16 17:35:00,60.6,41.3,30.11,WSW,238,0.5,3.4,49,0.00,,,-99.99,open2300 version1.11,2013-04-16 21:35:00,
2013-04-16 17:40:00,60.6,40.8,30.10,WNW,286,0.8,4.0,48,0.00,,,-99.99,open2300 version1.11,2013-04-16 21:40:00,
2013-04-16 17:45:00,60.6,40.2,30.11,West,268,0.8,3.1,47,0.00,,,-99.99,open2300 version1.11,2013-04-16 21:45:00,
2013-04-16 17:55:00,60.4,40.0,30.11,West,270,0.8,3.1,47,0.00,,,-99.99,open2300 version1.11,2013-04-16 21:55:00,
2013-04-16 18:00:00,60.4,39.5,30.11,West,270,0.7,2.9,46,0.00,,,-99.99,open2300 version1.11,2013-04-16 22:00:00,
2013-04-16 18:05:00,60.1,39.7,30.11,West,267,0.7,5.1,47,0.00,,,-99.99,open2300 version1.11,2013-04-16 22:05:00,
2013-04-16 18:10:00,60.1,40.3,30.11,WSW,248,0.9,5.4,48,0.00,,,-99.99,open2300 version1.11,2013-04-16 22:10:00,
2013-04-16 18:15:00,60.1,39.7,30.12,WSW,247,0.2,2.0,47,0.00,,,-99.99,open2300 version1.11,2013-04-16 22:15:00,
2013-04-16 18:20:00,59.9,39.0,30.12,WNW,290,0.4,3.1,46,0.00,,,-99.99,open2300 version1.11,2013-04-16 22:20:00,
2013-04-16 18:30:00,59.7,39.4,30.13,SE,135,0.4,2.5,47,0.00,,,-99.99,open2300 version1.11,2013-04-16 22:30:00,
2013-04-16 18:35:00,59.5,39.2,30.13,West,270,0.6,2.5,47,0.00,,,-99.99,open2300 version1.11,2013-04-16 22:35:00,
2013-04-16 18:40:00,59.4,39.6,30.13,SE,135,0.5,1.8,48,0.00,,,-99.99,open2300 version1.11,2013-04-16 22:40:00,
2013-04-16 18:45:00,59.2,39.5,30.13,West,270,0.5,2.0,48,0.00,,,-99.99,open2300 version1.11,2013-04-16 22:45:00,
2013-04-16 18:50:00,58.8,39.1,30.13,West,270,0.1,1.1,48,0.00,,,-99.99,open2300 version1.11,2013-04-16 22:50:00,
2013-04-16 18:55:00,58.8,38.6,30.13,West,270,0.1,1.1,47,0.00,,,-99.99,open2300 version1.11,2013-04-16 22:55:00,
2013-04-16 19:00:00,58.8,38.6,30.13,WNW,302,0.3,2.0,47,0.00,,,-99.99,open2300 version1.11,2013-04-16 23:00:00,
2013-04-16 19:05:00,58.6,38.4,30.13,WNW,295,0.6,3.1,47,0.00,,,-99.99,open2300 version1.11,2013-04-16 23:05:00,
2013-04-16 19:10:00,58.5,38.2,30.14,NW,318,0.3,2.9,47,0.00,,,-99.99,open2300 version1.11,2013-04-16 23:10:00,
2013-04-16 19:15:00,58.5,38.2,30.13,NNE,22,0.5,5.4,47,0.00,,,-99.99,open2300 version1.11,2013-04-16 23:15:00,
2013-04-16 19:25:00,57.9,37.2,30.13,WNW,291,1.4,4.7,46,0.02,,,-99.99,open2300 version1.11,2013-04-16 23:25:00,
2013-04-16 19:30:00,57.7,37.0,30.13,NW,321,0.3,2.7,46,0.02,,,-99.99,open2300 version1.11,2013-04-16 23:30:00,
2013-04-16 19:35:00,57.6,37.4,30.13,WNW,294,0.4,2.7,47,0.02,,,-99.99,open2300 version1.11,2013-04-16 23:35:00,
2013-04-16 19:40:00,57.4,37.3,30.13,NW,307,0.2,1.8,47,0.02,,,-99.99,open2300 version1.11,2013-04-16 23:40:00,
2013-04-16 19:45:00,57.0,36.9,30.13,NW,319,0.6,4.2,47,0.02,,,-99.99,open2300 version1.11,2013-04-16 23:45:00,
2013-04-16 19:50:00,56.8,36.8,30.14,WNW,297,0.4,3.1,47,0.02,,,-99.99,open2300 version1.11,2013-04-16 23:50:00,
2013-04-16 19:55:00,56.5,36.4,30.14,WNW,303,0.8,3.1,47,0.02,,,-99.99,open2300 version1.11,2013-04-16 23:55:00,
2013-04-16 20:05:00,56.1,36.6,30.15,NNW,331,0.3,1.6,48,0.02,,,-99.99,open2300 version1.11,2013-04-17 00:05:00,
2013-04-16 20:10:00,55.6,36.1,30.14,NNW,330,0.1,2.2,48,0.02,,,-99.99,open2300 version1.11,2013-04-17 00:10:00,
2013-04-16 20:15:00,55.2,35.8,30.15,WNW,292,0.1,1.3,48,0.02,,,-99.99,open2300 version1.11,2013-04-17 00:15:00,
2013-04-16 20:20:00,55.2,36.3,30.15,WNW,292,0.0,0.0,49,0.00,,,-99.99,open2300 version1.11,2013-04-17 00:20:00,
2013-04-16 20:25:00,54.9,36.0,30.15,WNW,292,0.0,0.0,49,0.00,,,-99.99,open2300 version1.11,2013-04-17 00:25:00,
2013-04-16 20:30:00,54.5,35.7,30.15,WNW,292,0.0,0.0,49,0.00,,,-99.99,open2300 version1.11,2013-04-17 00:30:00,
2013-04-16 20:35:00,54.1,35.9,30.16,WNW,292,0.0,0.0,50,0.00,,,-99.99,open2300 version1.11,2013-04-17 00:35:00,
2013-04-16 20:45:00,53.8,36.0,30.16,WNW,292,0.0,0.0,51,0.00,,,-99.99,open2300 version1.11,2013-04-17 00:45:00,
2013-04-16 20:55:00,53.2,36.0,30.16,WNW,292,0.0,0.0,52,0.00,,,-99.99,open2300 version1.11,2013-04-17 00:55:00,
2013-04-16 21:00:00,52.9,35.7,30.16,WNW,292,0.0,0.0,52,0.00,,,-99.99,open2300 version1.11,2013-04-17 01:00:00,
2013-04-16 21:10:00,52.3,35.6,30.17,WNW,292,0.0,0.0,53,0.00,,,-99.99,open2300 version1.11,2013-04-17 01:10:00,
2013-04-16 21:15:00,52.0,35.8,30.17,WNW,292,0.0,0.0,54,0.00,,,-99.99,open2300 version1.11,2013-04-17 01:15:00,
2013-04-16 21:20:00,51.4,35.7,30.17,WNW,292,0.0,0.0,55,0.00,,,-99.99,open2300 version1.11,2013-04-17 01:20:00,
2013-04-16 21:25:00,51.1,35.4,30.17,WNW,292,0.0,0.0,55,0.00,,,-99.99,open2300 version1.11,2013-04-17 01:25:00,
2013-04-16 21:30:00,50.7,35.1,30.17,WNW,292,0.0,0.0,55,0.00,,,-99.99,open2300 version1.11,2013-04-17 01:30:00,
2013-04-16 21:35:00,50.4,35.2,30.17,WNW,292,0.0,0.0,56,0.00,,,-99.99,open2300 version1.11,2013-04-17 01:35:00,
2013-04-16 21:45:00,49.6,35.0,30.17,WNW,292,0.0,0.0,57,0.00,,,-99.99,open2300 version1.11,2013-04-17 01:45:00,
2013-04-16 21:50:00,49.5,34.8,30.18,WNW,292,0.0,0.0,57,0.00,,,-99.99,open2300 version1.11,2013-04-17 01:50:00,
2013-04-16 21:55:00,49.3,34.6,30.18,WNW,292,0.0,0.0,57,0.00,,,-99.99,open2300 version1.11,2013-04-17 01:55:00,
2013-04-16 22:05:00,48.9,34.8,30.18,WNW,292,0.0,0.0,58,0.00,,,-99.99,open2300 version1.11,2013-04-17 02:05:00,
2013-04-16 22:10:00,48.7,35.1,30.18,WNW,292,0.0,0.0,59,0.00,,,-99.99,open2300 version1.11,2013-04-17 02:10:00,
2013-04-16 22:20:00,48.0,34.9,30.18,WNW,292,0.0,0.0,60,0.00,,,-99.99,open2300 version1.11,2013-04-17 02:20:00,
2013-04-16 22:30:00,48.0,34.9,30.18,WNW,292,0.0,0.0,60,0.00,,,-99.99,open2300 version1.11,2013-04-17 02:30:00,
2013-04-16 22:35:00,48.0,34.9,30.19,WNW,292,0.0,0.0,60,0.00,,,-99.99,open2300 version1.11,2013-04-17 02:35:00,
2013-04-16 22:40:00,47.8,34.7,30.19,WNW,292,0.0,0.0,60,0.00,,,-99.99,open2300 version1.11,2013-04-17 02:40:00,
2013-04-16 22:45:00,47.8,34.7,30.19,WNW,292,0.0,0.0,60,0.00,,,-99.99,open2300 version1.11,2013-04-17 02:45:00,
2013-04-16 22:50:00,47.7,34.9,30.19,WNW,292,0.0,0.0,61,0.00,,,-99.99,open2300 version1.11,2013-04-17 02:50:00,
2013-04-16 22:55:00,47.5,34.7,30.19,WNW,292,0.0,0.0,61,0.00,,,-99.99,open2300 version1.11,2013-04-17 02:55:00,
2013-04-16 23:00:00,47.5,34.7,30.19,WNW,292,0.0,0.0,61,0.00,,,-99.99,open2300 version1.11,2013-04-17 03:00:00,
2013-04-16 23:05:00,47.3,34.9,30.18,WNW,292,0.0,0.0,62,0.00,,,-99.99,open2300 version1.11,2013-04-17 03:05:00,
2013-04-16 23:10:00,47.1,34.8,30.19,WNW,292,0.0,0.0,62,0.00,,,-99.99,open2300 version1.11,2013-04-17 03:10:00,
2013-04-16 23:15:00,46.9,34.6,30.19,WNW,292,0.0,0.0,62,0.00,,,-99.99,open2300 version1.11,2013-04-17 03:15:00,
2013-04-16 23:25:00,46.8,34.8,30.20,WNW,292,0.0,0.0,63,0.00,,,-99.99,open2300 version1.11,2013-04-17 03:25:00,
2013-04-16 23:30:00,46.8,34.8,30.20,WNW,292,0.0,0.0,63,0.00,,,-99.99,open2300 version1.11,2013-04-17 03:30:00,
2013-04-16 23:35:00,46.6,35.0,30.20,WNW,292,0.0,0.0,64,0.00,,,-99.99,open2300 version1.11,2013-04-17 03:35:00,
2013-04-16 23:40:00,46.6,35.0,30.20,WNW,292,0.0,0.0,64,0.00,,,-99.99,open2300 version1.11,2013-04-17 03:40:00,
2013-04-16 23:45:00,46.6,35.0,30.20,WNW,292,0.0,0.0,64,0.00,,,-99.99,open2300 version1.11,2013-04-17 03:45:00,
2013-04-16 23:50:00,46.2,35.1,30.20,WNW,292,0.0,0.0,65,0.00,,,-99.99,open2300 version1.11,2013-04-17 03:50:00,
2013-04-16 23:55:00,46.2,35.1,30.19,WNW,292,0.0,0.0,65,0.00,,,-99.99,open2300 version1.11,2013-04-17 03:55:00,